Date String (YYYY-MM-DD hh:mm:ss) UTC,Instrument flags,Ambient pressure (hPa),Sample flow (lpm),Bypass flow (lpm),Sample temperature (°C),Ambient temperature (°C),ASC tube jacket temperature (°C),LED temperature (°C),Box temperature (°C),Sample RH (%),Span deviation,Mass concentration (μg/m³),Mass concentration (μg/m³),Mass concentration (μg/m³)
DateTimeUTC,F1_M11,P_M11,Q1_M11,Q2_M11,T1_M11,T2_M11,T3_M11,T4_M11,T5_M11,U1_M11,ZSPAN_M11,X0_M11,X2_M11,X1_M11
2023-02-17 16:00:00,,0828.0,4.98,0.00,22.9,21.6,00.0,31.7,24.7,08.2,0000.0,0010.14,0002.92,0002.10
2023-02-17 16:01:00,,0827.9,5.01,0.00,22.9,21.6,00.0,31.7,24.7,08.4,0000.0,0010.15,0002.93,0002.12
2023-02-17 16:02:00,,0827.9,5.00,0.00,22.9,21.6,00.0,31.7,24.7,08.5,0000.0,0009.98,0002.94,0002.15
2023-02-17 16:03:00,,0827.9,5.01,0.00,22.9,21.6,00.0,31.7,24.7,08.4,0000.0,0009.34,0002.91,0002.16
2023-02-17 16:04:00,,0827.9,5.00,0.00,22.9,21.6,00.0,31.7,24.7,08.3,0000.0,0009.65,0002.94,0002.16
2023-02-17 16:05:00,,0827.9,5.00,0.00,22.9,21.6,00.0,31.7,24.7,08.1,0000.0,0009.54,0002.95,0002.13
2023-02-17 16:06:00,,0827.9,5.01,0.00,22.9,21.6,00.0,31.7,24.8,07.9,0000.0,0009.18,0002.92,0002.11
2023-02-17 16:07:00,,0827.9,4.99,0.00,22.9,21.6,00.0,31.7,24.8,08.0,0000.0,0007.89,0002.84,0002.07
2023-02-17 16:08:00,,0827.9,5.00,0.00,22.9,21.6,00.0,31.7,24.8,08.1,0000.0,0007.64,0002.73,0002.00
2023-02-17 16:09:00,,0827.9,5.00,0.00,22.9,21.6,00.0,31.7,24.8,08.4,0000.0,0007.64,0002.70,0001.96
2023-02-17 16:10:00,,0827.9,5.00,0.00,23.0,21.6,00.0,31.7,24.8,09.1,0000.0,0006.44,0002.73,0001.99
2023-02-17 16:11:00,,0827.9,5.00,0.00,22.9,21.6,00.0,31.7,24.8,08.8,0000.0,0006.16,0002.75,0002.02
2023-02-17 16:12:00,,0828.0,5.00,0.00,22.9,21.6,00.0,31.7,24.8,08.7,0000.0,0006.35,0002.82,0002.03
2023-02-17 16:13:00,,0828.0,5.00,0.00,23.0,21.6,00.0,31.7,24.8,08.4,0000.0,0006.13,0002.80,0002.03
2023-02-17 16:14:00,,0828.0,5.00,0.00,22.9,21.5,00.0,31.7,24.7,08.2,0000.0,0006.03,0002.84,0002.07
2023-02-17 16:15:00,,0828.0,5.00,0.00,22.9,21.4,00.0,31.7,24.7,08.0,0000.0,0005.56,0002.93,0002.14
2023-02-17 16:16:00,,0828.0,4.97,0.00,22.9,21.3,00.0,31.7,24.6,08.1,0000.0,0005.96,0003.13,0002.26
2023-02-17 16:17:00,,0828.0,5.02,0.00,22.9,21.3,00.0,31.7,24.6,08.1,0000.0,0006.71,0003.27,0002.42
2023-02-17 16:18:00,,0828.0,5.02,0.00,22.9,21.3,00.0,31.7,24.6,08.3,0000.0,0007.49,0003.38,0002.58
2023-02-17 16:19:00,,0828.0,4.99,0.00,22.9,21.4,00.0,31.7,24.6,08.2,0000.0,0007.44,0003.47,0002.74
2023-02-17 16:20:00,,0828.0,5.00,0.00,22.9,21.5,00.0,31.7,24.6,08.2,0000.0,0007.50,0003.53,0002.86
2023-02-17 16:21:00,,0828.0,5.00,0.00,22.9,21.5,00.0,31.7,24.6,08.3,0000.0,0007.54,0003.55,0002.90
2023-02-17 16:22:00,,0827.9,4.98,0.00,22.9,21.5,00.0,31.7,24.7,08.4,0000.0,0008.02,0003.59,0002.93
2023-02-17 16:23:00,,0827.9,5.01,0.00,22.9,21.6,00.0,31.7,24.7,08.3,0000.0,0008.20,0003.57,0002.95
2023-02-17 16:24:00,,0827.9,5.01,0.00,22.9,21.6,00.0,31.7,24.7,08.3,0000.0,0008.23,0003.58,0002.94
2023-02-17 16:25:00,,0828.0,5.00,0.00,22.9,21.6,00.0,31.7,24.7,08.3,0000.0,0008.28,0003.61,0002.94
2023-02-17 16:26:00,,0827.9,4.99,0.00,22.9,21.6,00.0,31.7,24.7,08.4,0000.0,0008.76,0003.56,0002.90
2023-02-17 16:27:00,,0827.8,5.01,0.00,22.9,21.6,00.0,31.7,24.7,08.6,0000.0,0008.71,0003.50,0002.85
2023-02-17 16:28:00,,0827.9,5.01,0.00,22.9,21.6,00.0,31.7,24.7,08.5,0000.0,0008.42,0003.40,0002.76
2023-02-17 16:29:00,,0828.0,4.96,0.00,22.9,21.6,00.0,31.7,24.7,08.4,0000.0,0008.31,0003.38,0002.72
2023-02-17 16:30:00,,0828.0,5.00,0.00,22.9,21.7,00.0,31.7,24.7,08.3,0000.0,0007.88,0003.34,0002.67
2023-02-17 16:31:00,,0827.9,4.99,0.00,22.9,21.7,00.0,31.7,24.8,08.3,0000.0,0007.70,0003.27,0002.54
2023-02-17 16:32:00,,0828.0,4.99,0.00,22.9,21.7,00.0,31.7,24.8,08.4,0000.0,0007.62,0003.21,0002.45
2023-02-17 16:33:00,,0827.9,5.01,0.00,22.9,21.7,00.0,31.7,24.8,09.0,0000.0,0007.61,0003.21,0002.41
2023-02-17 16:34:00,,0828.0,5.01,0.00,22.9,21.7,00.0,31.7,24.8,09.1,0000.0,0007.68,0003.23,0002.37
2023-02-17 16:35:00,,0828.0,5.00,0.00,22.9,21.7,00.0,31.7,24.8,08.9,0000.0,0007.76,0003.27,0002.35
2023-02-17 16:36:00,,0828.0,4.99,0.00,22.9,21.7,00.0,31.7,24.8,08.5,0000.0,0008.00,0003.32,0002.34
2023-02-17 16:37:00,,0827.8,5.00,0.00,23.0,21.7,00.0,31.7,24.8,08.5,0000.0,0008.81,0003.32,0002.30
2023-02-17 16:38:00,,0828.1,5.01,0.00,23.0,21.7,00.0,31.7,24.8,08.4,0000.0,0010.09,0003.42,0002.28
2023-02-17 16:39:00,,0827.9,5.00,0.00,23.0,21.7,00.0,31.7,24.8,08.6,0000.0,0010.25,0003.48,0002.26
2023-02-17 16:40:00,,0827.9,4.98,0.00,23.0,21.7,00.0,31.7,24.8,08.5,0000.0,0010.56,0003.52,0002.23
2023-02-17 16:41:00,,0828.0,5.02,0.00,23.0,21.7,00.0,31.7,24.8,08.2,0000.0,0011.03,0003.65,0002.24
2023-02-17 16:42:00,,0828.0,4.97,0.00,23.0,21.7,00.0,31.7,24.8,08.7,0000.0,0011.48,0003.76,0002.28
2023-02-17 16:43:00,,0828.0,4.99,0.00,23.0,21.8,00.0,31.7,24.8,08.9,0000.0,0011.99,0003.88,0002.30
2023-02-17 16:44:00,,0827.9,5.00,0.00,23.0,21.8,00.0,31.7,24.8,09.2,0000.0,0012.64,0003.95,0002.31
2023-02-17 16:45:00,,0827.9,5.01,0.00,23.0,21.8,00.0,31.8,24.8,09.0,0000.0,0012.81,0003.92,0002.29
2023-02-17 16:46:00,,0828.0,4.99,0.00,23.0,21.8,00.0,31.8,24.8,08.9,0000.0,0012.20,0003.86,0002.26
2023-02-17 16:47:00,,0827.9,5.00,0.00,23.0,21.8,00.0,31.8,24.8,08.8,0000.0,0012.24,0003.84,0002.25
2023-02-17 16:48:00,,0828.0,4.99,0.00,23.0,21.8,00.0,31.8,24.8,08.6,0000.0,0011.78,0003.85,0002.27
2023-02-17 16:49:00,,0828.0,5.01,0.00,23.0,21.8,00.0,31.8,24.8,08.1,0000.0,0010.99,0003.80,0002.26
2023-02-17 16:50:00,,0827.9,5.01,0.00,23.0,21.8,00.0,31.8,24.9,08.1,0000.0,0010.46,0003.69,0002.24
2023-02-17 16:51:00,,0827.9,5.01,0.00,23.0,21.8,00.0,31.8,24.8,08.4,0000.0,0010.04,0003.61,0002.22
2023-02-17 16:52:00,,0828.0,5.02,0.00,23.0,21.8,00.0,31.8,24.8,08.8,0000.0,0009.60,0003.49,0002.18
2023-02-17 16:53:00,,0827.9,4.99,0.00,23.0,21.8,00.0,31.8,24.8,08.5,0000.0,0009.37,0003.41,0002.16
2023-02-17 16:54:00,,0828.0,5.01,0.00,23.0,21.8,00.0,31.8,24.9,07.7,0000.0,0008.88,0003.29,0002.13
2023-02-17 16:55:00,,0828.0,4.98,0.00,23.1,21.9,00.0,31.8,24.9,07.6,0000.0,0008.53,0003.17,0002.06
2023-02-17 16:56:00,,0828.0,5.01,0.00,23.1,21.9,00.0,31.8,24.9,07.7,0000.0,0008.32,0003.09,0002.02
2023-02-17 16:57:00,,0828.0,4.99,0.00,23.1,21.9,00.0,31.8,24.9,08.2,0000.0,0008.23,0003.04,0001.99
2023-02-17 16:58:00,,0828.0,5.00,0.00,23.1,21.9,00.0,31.8,24.9,08.2,0000.0,0007.89,0002.94,0001.96
2023-02-17 16:59:00,,0828.0,4.99,0.00,23.1,21.9,00.0,31.9,24.9,08.2,0000.0,0008.20,0002.85,0001.93
